Language: 


Des rapports , des résumés tant et plus, au choix de chacun....


Données statistiques de la station
Quotidien Rapport Mars 22, 2017 Unités:  Anglais    Métrique   les deux
« Précédent Jour
Suivant Jour »
Quotidien Hebdomadaire Mensuel Annuel Actuel
  Haut: Bas: Moyen:
Température: 54.9 °F 35.8 °F 46 °F
Pt de rosée: 42.6 °F 31.3 °F 36.3 °F
Humidité: 86 % 52 % 70 %
Vitesse du vent: 17.4 mph 0 mph 6.2 mph
Rafales: 20.6 mph - -
Vent:- - SSE
Pression: 29.9 in 29.8 in -
Précipitation: 0 in    
Historical Graphs
 
 
Données statistiques pour Mars 22, 2017
Heure Température Point de rosée Pression Vent Vitesse du vent Refales Humidité Pluie (taux horaire)
00:03 37.9 °F 32.2 °F 29.9 in Calm   3.8 mph 79 % 0 in
00:08 37.8 °F 31.8 °F 29.9 in Calm   3.8 mph 79 % 0 in
00:13 37.6 °F 32 °F 29.9 in Calm   0.9 mph 80 % 0 in
00:18 37.2 °F 31.6 °F 29.9 in Calm     80 % 0 in
00:23 37 °F 31.5 °F 29.9 in Calm   3.4 mph 80 % 0 in
00:28 37 °F 31.8 °F 29.9 in Calm   3.4 mph 81 % 0 in
00:33 36.9 °F 31.6 °F 29.9 in SSE 1.1 mph 1.1 mph 81 % 0 in
00:38 36.9 °F 31.5 °F 29.9 in Calm   3.4 mph 81 % 0 in
00:43 36.9 °F 31.8 °F 29.9 in Calm   3.4 mph 82 % 0 in
00:48 36.9 °F 31.8 °F 29.9 in Calm   1.6 mph 82 % 0 in
00:53 36.7 °F 31.6 °F 29.9 in Calm   0.9 mph 82 % 0 in
00:58 36.7 °F 31.6 °F 29.9 in Calm   3.8 mph 82 % 0 in
01:03 36.3 °F 31.6 °F 29.9 in Calm   3.8 mph 83 % 0 in
01:08 36.1 °F 31.6 °F 29.9 in Calm   3.8 mph 83 % 0 in
01:13 36.1 °F 31.6 °F 29.9 in Calm   0.9 mph 83 % 0 in
01:18 36.3 °F 32 °F 29.9 in Calm   1.6 mph 84 % 0 in
01:23 36.1 °F 31.8 °F 29.9 in Calm   1.6 mph 84 % 0 in
01:28 36.1 °F 31.8 °F 29.9 in Calm   1.3 mph 84 % 0 in
01:33 36.1 °F 31.6 °F 29.9 in Calm   1.3 mph 84 % 0 in
01:38 36.1 °F 31.6 °F 29.9 in Calm     84 % 0 in
01:43 35.8 °F 31.3 °F 29.9 in Calm     84 % 0 in
01:48 35.8 °F 31.3 °F 29.9 in Calm     84 % 0 in
01:54 35.8 °F 31.6 °F 29.9 in Calm   1.6 mph 85 % 0 in
01:59 35.8 °F 31.6 °F 29.9 in Calm   1.6 mph 85 % 0 in
02:04 36.1 °F 32 °F 29.9 in Calm   2.9 mph 85 % 0 in
02:09 36.1 °F 32.4 °F 29.9 in SSE 3.8 mph 3.8 mph 86 % 0 in
02:14 36.3 °F 32.5 °F 29.9 in SSE 3.6 mph 3.8 mph 86 % 0 in
02:19 36.3 °F 32.5 °F 29.9 in Calm   3.6 mph 86 % 0 in
02:24 36.3 °F 32.5 °F 29.9 in Calm     86 % 0 in
02:29 36.3 °F 32.5 °F 29.9 in Calm     86 % 0 in
02:34 36.1 °F 32.2 °F 29.9 in Calm   2.7 mph 85 % 0 in
02:39 36.3 °F 32.4 °F 29.9 in Calm   2.7 mph 85 % 0 in
02:44 36.7 °F 32.7 °F 29.9 in South 4 mph 4.9 mph 86 % 0 in
02:49 36.9 °F 33.1 °F 29.9 in Calm   7.4 mph 86 % 0 in
02:54 37 °F 33.3 °F 29.9 in SSE 3.8 mph 7.4 mph 86 % 0 in
02:59 37.6 °F 33.6 °F 29.9 in Calm   6.5 mph 86 % 0 in
03:04 37.6 °F 33.6 °F 29.9 in Calm   4.9 mph 86 % 0 in
03:09 37.6 °F 33.4 °F 29.9 in Calm   4.2 mph 85 % 0 in
03:14 37.6 °F 33.4 °F 29.9 in SE 3.4 mph 5.4 mph 85 % 0 in
03:19 37.8 °F 33.6 °F 29.9 in SE 5.4 mph 10.1 mph 85 % 0 in
03:24 37.9 °F 33.6 °F 29.9 in Calm   10.1 mph 84 % 0 in
03:29 37.9 °F 33.6 °F 29.9 in SE 4.9 mph 6.3 mph 84 % 0 in
03:34 37.9 °F 33.3 °F 29.9 in SE 4.9 mph 6.7 mph 83 % 0 in
03:39 37.9 °F 33.3 °F 29.9 in SSE 2.7 mph 6.7 mph 83 % 0 in
03:44 38.1 °F 33.3 °F 29.9 in SE 5.4 mph 6.5 mph 82 % 0 in
03:49 38.5 °F 33.3 °F 29.9 in SE 4.9 mph 6.5 mph 82 % 0 in
03:54 38.5 °F 33.4 °F 29.9 in Calm   6.5 mph 82 % 0 in
03:59 38.7 °F 33.6 °F 29.9 in SE 5.8 mph 6.3 mph 82 % 0 in
04:04 38.8 °F 33.4 °F 29.9 in SE 5.6 mph 8.5 mph 81 % 0 in
04:09 39 °F 33.4 °F 29.8 in ESE 3.4 mph 10.1 mph 80 % 0 in
04:14 39.2 °F 33.6 °F 29.8 in SSE 2.9 mph 10.1 mph 80 % 0 in
04:19 39.2 °F 33.3 °F 29.8 in SE 4.3 mph 8.5 mph 79 % 0 in
04:24 39.2 °F 32.9 °F 29.9 in South 6 mph 8.9 mph 78 % 0 in
04:29 39 °F 32.7 °F 29.9 in SSE 2.7 mph 8.9 mph 78 % 0 in
04:34 39 °F 32.7 °F 29.9 in South 3.1 mph 7.4 mph 78 % 0 in
04:39 39 °F 32.7 °F 29.8 in Calm   8.1 mph 78 % 0 in
04:44 38.8 °F 32.9 °F 29.8 in SSE 6.3 mph 8.1 mph 79 % 0 in
04:49 38.8 °F 32.9 °F 29.8 in SE 0.9 mph 10.3 mph 79 % 0 in
04:54 38.7 °F 32.7 °F 29.9 in South 5.8 mph 10.3 mph 79 % 0 in
04:59 38.7 °F 32.7 °F 29.9 in SSE 4.3 mph 10.1 mph 79 % 0 in
05:04 38.5 °F 32.5 °F 29.9 in SSE 5.4 mph 8.1 mph 79 % 0 in
05:09 38.5 °F 32.9 °F 29.8 in SSE 1.6 mph 8.1 mph 80 % 0 in
05:14 38.5 °F 32.7 °F 29.8 in SSE 5.6 mph 7.8 mph 80 % 0 in
05:19 38.5 °F 33.1 °F 29.8 in SSE 4.9 mph 7.2 mph 81 % 0 in
05:24 38.5 °F 33.1 °F 29.8 in Calm   8.5 mph 81 % 0 in
05:29 38.5 °F 33.1 °F 29.8 in Calm   8.5 mph 81 % 0 in
05:34 38.5 °F 33.3 °F 29.8 in SE 6 mph 7.6 mph 82 % 0 in
05:39 38.5 °F 33.3 °F 29.8 in South 4.3 mph 7.4 mph 82 % 0 in
05:44 38.5 °F 33.6 °F 29.8 in SSE 2.9 mph 10.1 mph 83 % 0 in
05:49 38.5 °F 34 °F 29.8 in SSE 6.7 mph 10.1 mph 84 % 0 in
05:54 38.5 °F 34.2 °F 29.8 in SE 6.5 mph 7.8 mph 84 % 0 in
05:59 38.5 °F 34 °F 29.8 in SSE 3.1 mph 7.8 mph 84 % 0 in
06:05 38.5 °F 34 °F 29.8 in SSE 4.3 mph 8.5 mph 84 % 0 in
06:10 38.5 °F 34 °F 29.8 in SSE 2.2 mph 8.5 mph 84 % 0 in
06:15 38.5 °F 34.2 °F 29.8 in South 6 mph 10.3 mph 85 % 0 in
06:20 38.5 °F 34.2 °F 29.8 in SSE 3.6 mph 10.3 mph 85 % 0 in
06:25 38.5 °F 34.2 °F 29.8 in SSE 3.6 mph 10.3 mph 85 % 0 in
06:30 38.5 °F 34.3 °F 29.8 in SE 5.6 mph 7.8 mph 85 % 0 in
06:35 38.7 °F 34.9 °F 29.8 in South 6.3 mph 10.3 mph 86 % 0 in
06:40 38.7 °F 34.9 °F 29.8 in SSE 5.8 mph 11.9 mph 86 % 0 in
06:45 38.7 °F 34.9 °F 29.8 in SSE 4 mph 11.9 mph 86 % 0 in
06:50 38.7 °F 34.9 °F 29.8 in SSE 8.1 mph 11.9 mph 86 % 0 in
06:55 38.8 °F 35.1 °F 29.8 in SSE 6 mph 11.9 mph 86 % 0 in
07:00 38.8 °F 35.1 °F 29.8 in SSW 6.5 mph 10.7 mph 86 % 0 in
07:05 39 °F 34.9 °F 29.8 in SSE 3.6 mph 10.7 mph 85 % 0 in
07:10 39 °F 34.9 °F 29.8 in South 4.3 mph 11.4 mph 85 % 0 in
07:15 39 °F 34.9 °F 29.8 in South 10.5 mph 11.4 mph 85 % 0 in
07:20 39.2 °F 35.1 °F 29.8 in SSE 6.5 mph 11.2 mph 85 % 0 in
07:25 39.6 °F 35.4 °F 29.8 in SSE 6 mph 10.1 mph 85 % 0 in
07:30 39.7 °F 35.6 °F 29.8 in SSE 6 mph 10.5 mph 85 % 0 in
07:35 40.1 °F 36 °F 29.8 in SSE 3.8 mph 10.5 mph 85 % 0 in
07:40 40.5 °F 36.3 °F 29.8 in SSE 6.7 mph 8.7 mph 85 % 0 in
07:45 41 °F 36.5 °F 29.8 in South 3.4 mph 8.7 mph 84 % 0 in
07:50 41.4 °F 36.9 °F 29.8 in SE 7.8 mph 7.8 mph 84 % 0 in
07:55 41.9 °F 37 °F 29.8 in SSE 6 mph 8.5 mph 83 % 0 in
08:00 42.1 °F 37 °F 29.8 in SSE 5.8 mph 10.5 mph 82 % 0 in
08:05 42.6 °F 37.6 °F 29.8 in SE 4 mph 10.5 mph 82 % 0 in
08:10 43.2 °F 37.4 °F 29.8 in South 9.8 mph 10.5 mph 80 % 0 in
08:15 43.3 °F 37.6 °F 29.8 in South 5.6 mph 10.5 mph 80 % 0 in
08:20 43.9 °F 37.8 °F 29.8 in SSW 7.2 mph 10.3 mph 79 % 0 in
08:25 44.2 °F 37.9 °F 29.8 in SE 5.6 mph 10.5 mph 78 % 0 in
08:30 44.8 °F 37.9 °F 29.8 in SSW 5.4 mph 10.5 mph 77 % 0 in
08:35 45.1 °F 37.9 °F 29.8 in South 9.4 mph 10.3 mph 76 % 0 in
08:40 45.7 °F 38.5 °F 29.8 in SSE 10.3 mph 11.4 mph 76 % 0 in
08:45 45.7 °F 38.1 °F 29.8 in South 6 mph 13.2 mph 75 % 0 in
08:50 45.9 °F 38.5 °F 29.8 in SSE 11 mph 13.2 mph 75 % 0 in
08:55 46.2 °F 38.5 °F 29.8 in SSE 8.7 mph 12.5 mph 74 % 0 in
09:00 46.8 °F 39 °F 29.8 in South 4 mph 10.7 mph 74 % 0 in
09:05 46.9 °F 39 °F 29.8 in SSE 7.8 mph 11 mph 74 % 0 in
09:10 47.3 °F 39 °F 29.8 in SSE 13.2 mph 13.2 mph 73 % 0 in
09:15 47.7 °F 39.6 °F 29.8 in South 8.1 mph 13.2 mph 73 % 0 in
09:20 47.8 °F 39.4 °F 29.8 in SSE 8.5 mph 13.6 mph 72 % 0 in
09:25 48 °F 39 °F 29.8 in SSE 7.6 mph 13.6 mph 71 % 0 in
09:30 48.2 °F 39.4 °F 29.8 in South 7.8 mph 15.4 mph 71 % 0 in
09:35 48.7 °F 40.1 °F 29.8 in SSW 7.2 mph 15.4 mph 72 % 0 in
09:41 49.1 °F 40.1 °F 29.8 in SSE 10.1 mph 13.2 mph 71 % 0 in
09:46 49.1 °F 39.7 °F 29.8 in WSW 10.1 mph 13.2 mph 70 % 0 in
09:51 49.3 °F 39.6 °F 29.8 in SSE 8.5 mph 17.2 mph 69 % 0 in
09:56 49.6 °F 39.9 °F 29.8 in SSE 10.3 mph 17.2 mph 69 % 0 in
10:01 50 °F 40.3 °F 29.8 in SSE 7.6 mph 13.9 mph 69 % 0 in
10:06 50.4 °F 40.6 °F 29.8 in SSE 10.7 mph 13.9 mph 69 % 0 in
10:11 50.7 °F 40.8 °F 29.8 in SSW 5.6 mph 13.9 mph 69 % 0 in
10:16 50.5 °F 39.9 °F 29.8 in SSW 8.1 mph 17.2 mph 67 % 0 in
10:21 50.5 °F 40.3 °F 29.8 in SSE 5.4 mph 17.2 mph 68 % 0 in
10:26 50.5 °F 40.3 °F 29.8 in SSE 13.9 mph 17 mph 68 % 0 in
10:31 50.4 °F 40.3 °F 29.8 in SSE 12.8 mph 17.4 mph 68 % 0 in
10:36 50.2 °F 40.8 °F 29.8 in SSE 11.9 mph 17.4 mph 70 % 0 in
10:41 49.3 °F 39.6 °F 29.8 in South 10.3 mph 16.8 mph 69 % 0 in
10:46 48.4 °F 39.4 °F 29.8 in SSW 6.3 mph 16.8 mph 71 % 0 in
10:51 48.2 °F 39.6 °F 29.8 in SSW 10.1 mph 14.1 mph 72 % 0 in
10:56 48.4 °F 40.1 °F 29.8 in South 13 mph 17 mph 73 % 0 in
11:01 49.5 °F 41.2 °F 29.8 in South 7.2 mph 17 mph 73 % 0 in
11:06 50.2 °F 41.7 °F 29.8 in SSE 15.2 mph 15.2 mph 73 % 0 in
11:11 50.2 °F 40.8 °F 29.8 in SSE 14.5 mph 15.7 mph 70 % 0 in
11:16 50.7 °F 41.5 °F 29.8 in South 15.4 mph 15.7 mph 71 % 0 in
11:21 50.4 °F 40.6 °F 29.8 in SSE 17.2 mph 20.6 mph 69 % 0 in
11:26 49.8 °F 39.9 °F 29.8 in South 12.8 mph 20.6 mph 69 % 0 in
11:31 49.8 °F 39.9 °F 29.8 in ESE 13 mph 16.6 mph 69 % 0 in
11:36 50.4 °F 40.8 °F 29.8 in South 10.3 mph 16.6 mph 70 % 0 in
11:41 50.2 °F 40.8 °F 29.8 in South 10.5 mph 14.8 mph 70 % 0 in
11:46 50.7 °F 41.4 °F 29.8 in SSE 10.1 mph 19.2 mph 70 % 0 in
11:51 50.9 °F 40.6 °F 29.8 in South 12.8 mph 19.2 mph 68 % 0 in
11:56 51.3 °F 41.4 °F 29.8 in SSW 12.3 mph 18.6 mph 69 % 0 in
12:01 50.5 °F 40.3 °F 29.8 in South 8.7 mph 18.6 mph 68 % 0 in
12:06 50 °F 39.7 °F 29.8 in SSE 7.8 mph 17.4 mph 68 % 0 in
12:11 51.3 °F 41.7 °F 29.8 in South 15.4 mph 18.8 mph 70 % 0 in
12:16 51.1 °F 40.8 °F 29.8 in SSE 8.1 mph 18.8 mph 68 % 0 in
12:21 51.6 °F 41.4 °F 29.8 in SSE 10.5 mph 17 mph 68 % 0 in
12:26 52.2 °F 41.2 °F 29.8 in South 8.9 mph 15.7 mph 66 % 0 in
12:31 51.6 °F 40.6 °F 29.8 in SSE 12.1 mph 15.7 mph 66 % 0 in
12:36 50.5 °F 39.6 °F 29.8 in SSE 8.9 mph 14.5 mph 66 % 0 in
12:41 52 °F 41.4 °F 29.8 in SSW 12.1 mph 14.1 mph 67 % 0 in
12:46 52.9 °F 42.3 °F 29.8 in SE 7.4 mph 14.1 mph 67 % 0 in
12:47 53.1 °F 42.6 °F 29.8 in South 11 mph 14.1 mph 68 % 0 in
12:52 53.1 °F 41.2 °F 29.8 in SSE 8.1 mph 17.7 mph 64 % 0 in
12:57 53.8 °F 41.4 °F 29.8 in South 13 mph 17.7 mph 63 % 0 in
13:02 54.1 °F 41.9 °F 29.8 in South 7.8 mph 17.7 mph 63 % 0 in
13:07 53.2 °F 40.1 °F 29.8 in SSE 10.7 mph 16.8 mph 61 % 0 in
13:12 52 °F 38.8 °F 29.8 in SSE 13 mph 15.4 mph 61 % 0 in
13:18 51.3 °F 39 °F 29.8 in South 10.5 mph 15.4 mph 63 % 0 in
13:23 51.3 °F 39.6 °F 29.8 in South 10.1 mph 15.2 mph 64 % 0 in
13:28 51.6 °F 40.3 °F 29.8 in SSE 12.8 mph 15.2 mph 65 % 0 in
13:33 52.2 °F 40.6 °F 29.8 in SSE 10.3 mph 15.9 mph 65 % 0 in
13:38 51.6 °F 40.3 °F 29.8 in East 10.1 mph 15.9 mph 65 % 0 in
13:43 52 °F 40.8 °F 29.8 in South 6 mph 15.2 mph 66 % 0 in
13:48 52 °F 40.5 °F 29.8 in SSE 7.8 mph 14.5 mph 65 % 0 in
13:49 52.2 °F 40.6 °F 29.8 in SE 8.1 mph 14.5 mph 65 % 0 in
13:54 51.6 °F 40.3 °F 29.8 in SE 8.5 mph 13.2 mph 65 % 0 in
13:59 51.4 °F 39.9 °F 29.8 in SSE 13 mph 13.4 mph 65 % 0 in
14:04 52.2 °F 40.3 °F 29.8 in SSE 8.5 mph 14.8 mph 64 % 0 in
14:10 52.5 °F 41.2 °F 29.8 in South 8.7 mph 14.8 mph 65 % 0 in
14:15 53.2 °F 41.2 °F 29.8 in SSE 7.6 mph 16.8 mph 63 % 0 in
14:20 53.2 °F 40.6 °F 29.8 in SSE 17.4 mph 17.4 mph 62 % 0 in
14:25 53.8 °F 41 °F 29.8 in SE 12.8 mph 17.4 mph 62 % 0 in
14:30 53.2 °F 40.5 °F 29.8 in SE 12.3 mph 14.8 mph 62 % 0 in
14:35 54 °F 41.2 °F 29.8 in SSE 7.8 mph 13.9 mph 62 % 0 in
14:40 53.8 °F 39.7 °F 29.8 in SSE 5.8 mph 16.6 mph 59 % 0 in
14:45 54.9 °F 41.5 °F 29.8 in SSE 10.5 mph 16.6 mph 61 % 0 in
14:50 54 °F 39.6 °F 29.8 in SSE 14.3 mph 17.2 mph 58 % 0 in
14:55 53.4 °F 39.6 °F 29.8 in SSE 10.7 mph 17.2 mph 59 % 0 in
15:00 54 °F 39.9 °F 29.8 in SSE 12.5 mph 15.7 mph 59 % 0 in
15:05 53.1 °F 39 °F 29.8 in SE 9.8 mph 14.3 mph 59 % 0 in
15:10 53.2 °F 39.6 °F 29.8 in SSE 10.1 mph 14.5 mph 60 % 0 in
15:15 52.9 °F 39.4 °F 29.8 in SSE 12.3 mph 14.8 mph 60 % 0 in
15:20 53.4 °F 39.9 °F 29.8 in East 12.8 mph 14.8 mph 60 % 0 in
15:25 53.2 °F 39.2 °F 29.8 in SSE 11 mph 14.8 mph 59 % 0 in
15:30 53.8 °F 40.1 °F 29.8 in SSE 6 mph 18.8 mph 60 % 0 in
15:35 54 °F 39.4 °F 29.8 in SE 10.3 mph 18.8 mph 58 % 0 in
15:40 53.2 °F 38.8 °F 29.8 in SE 13 mph 15.2 mph 58 % 0 in
15:45 53.1 °F 38.1 °F 29.8 in SSE 8.5 mph 17 mph 57 % 0 in
15:50 53.2 °F 39.2 °F 29.8 in East 7.8 mph 17 mph 59 % 0 in
15:55 53.2 °F 38.8 °F 29.8 in SE 9.8 mph 15.4 mph 58 % 0 in
16:00 53.1 °F 39 °F 29.8 in SSE 8.1 mph 15.4 mph 59 % 0 in
16:05 53.1 °F 39 °F 29.8 in SSE 8.7 mph 13 mph 59 % 0 in
16:10 52.9 °F 38.8 °F 29.8 in SSE 10.1 mph 11.2 mph 59 % 0 in
16:15 52.5 °F 38.3 °F 29.8 in SSE 7.8 mph 11.2 mph 58 % 0 in
16:20 52.5 °F 38.3 °F 29.8 in SSE 3.6 mph 12.3 mph 58 % 0 in
16:25 52.9 °F 38.5 °F 29.8 in SSE 7.4 mph 12.3 mph 58 % 0 in
16:30 53.1 °F 38.7 °F 29.8 in South 8.5 mph 12.1 mph 58 % 0 in
16:35 52.9 °F 37.6 °F 29.8 in SSE 5.8 mph 11 mph 56 % 0 in
16:40 52.5 °F 36.9 °F 29.8 in South 8.1 mph 12.8 mph 55 % 0 in
16:45 52.5 °F 36.5 °F 29.8 in SSE 7.2 mph 14.5 mph 54 % 0 in
16:50 52.5 °F 36.5 °F 29.8 in SSE 5.6 mph 14.5 mph 54 % 0 in
16:55 53.1 °F 37.2 °F 29.8 in ESE 5.4 mph 12.3 mph 55 % 0 in
17:00 53.2 °F 36.9 °F 29.8 in SSE 7.6 mph 12.3 mph 54 % 0 in
17:05 53.2 °F 36.5 °F 29.8 in SE 9.8 mph 12.1 mph 53 % 0 in
17:10 53.1 °F 36.3 °F 29.8 in SSE 9.8 mph 13 mph 53 % 0 in
17:15 52.9 °F 36.1 °F 29.8 in SSE 6.3 mph 13 mph 53 % 0 in
17:20 52.9 °F 36.1 °F 29.8 in SE 4.9 mph 12.8 mph 53 % 0 in
17:25 52.5 °F 36.5 °F 29.8 in SE 7.4 mph 12.3 mph 54 % 0 in
17:30 52.5 °F 36.5 °F 29.8 in SSE 7.8 mph 13 mph 54 % 0 in
17:35 52.5 °F 36 °F 29.8 in SE 4 mph 13 mph 53 % 0 in
17:41 52.5 °F 35.8 °F 29.8 in ESE 6 mph 12.8 mph 53 % 0 in
17:46 52.3 °F 35.2 °F 29.8 in SSE 6.5 mph 15.7 mph 52 % 0 in
17:47 52.3 °F 35.2 °F 29.8 in SE 5.8 mph 15.7 mph 52 % 0 in
17:52 52.2 °F 35.1 °F 29.8 in SSE 8.5 mph 15.7 mph 52 % 0 in
17:57 52.2 °F 35.1 °F 29.8 in SE 6.3 mph 14.8 mph 52 % 0 in
18:02 52 °F 34.9 °F 29.8 in SSE 10.5 mph 10.5 mph 52 % 0 in
18:07 51.8 °F 34.7 °F 29.8 in SSE 6.3 mph 10.5 mph 52 % 0 in
18:12 51.8 °F 35.2 °F 29.8 in SE 7.8 mph 10.5 mph 53 % 0 in
18:17 51.6 °F 35.1 °F 29.8 in SE 8.1 mph 8.7 mph 53 % 0 in
18:22 51.4 °F 34.9 °F 29.8 in SSE 6.5 mph 11 mph 53 % 0 in
18:27 51.4 °F 35.2 °F 29.8 in ESE 6.5 mph 11 mph 54 % 0 in
18:32 51.3 °F 35.1 °F 29.8 in SSE 10.3 mph 12.3 mph 54 % 0 in
18:37 51.3 °F 35.1 °F 29.8 in SE 8.1 mph 12.3 mph 54 % 0 in
18:42 51.3 °F 35.1 °F 29.8 in SSE 13 mph 13.2 mph 54 % 0 in
18:47 51.3 °F 35.1 °F 29.8 in SE 10.1 mph 13.2 mph 54 % 0 in
18:52 51.3 °F 34.7 °F 29.8 in SSE 7.8 mph 13 mph 53 % 0 in
18:57 51.3 °F 34.7 °F 29.8 in SE 8.5 mph 11 mph 53 % 0 in
19:02 51.1 °F 34.5 °F 29.8 in SSE 6 mph 11 mph 53 % 0 in
19:07 51.1 °F 35.1 °F 29.8 in SSE 9.8 mph 12.5 mph 54 % 0 in
19:12 50.9 °F 34.9 °F 29.8 in SSE 7.4 mph 12.5 mph 54 % 0 in
19:17 50.9 °F 34.9 °F 29.8 in East 5.6 mph 12.5 mph 54 % 0 in
19:22 50.7 °F 34.5 °F 29.8 in SSE 6 mph 10.5 mph 54 % 0 in
19:27 50.5 °F 34.9 °F 29.8 in SE 6 mph 8.7 mph 55 % 0 in
19:32 50.5 °F 34.9 °F 29.8 in SE 4.7 mph 8.7 mph 55 % 0 in
19:37 50.4 °F 34.9 °F 29.8 in SE 10.7 mph 10.7 mph 55 % 0 in
19:42 50.4 °F 34.9 °F 29.8 in ESE 4.3 mph 10.7 mph 55 % 0 in
19:47 50.4 °F 34.9 °F 29.8 in SE 8.5 mph 9.6 mph 55 % 0 in
19:52 50.4 °F 34.9 °F 29.8 in SE 5.6 mph 9.6 mph 55 % 0 in
19:57 50.4 °F 34.9 °F 29.8 in ESE 5.4 mph 11 mph 55 % 0 in
20:02 50.2 °F 34.5 °F 29.8 in East 5.8 mph 11 mph 55 % 0 in
20:07 50 °F 34.3 °F 29.8 in SE 5.8 mph 8.1 mph 55 % 0 in
20:12 50 °F 34.3 °F 29.8 in SE 3.1 mph 8.1 mph 55 % 0 in
20:17 50 °F 34.3 °F 29.8 in ESE 3.6 mph 7.2 mph 55 % 0 in
20:19 49.8 °F 34.7 °F 29.8 in ESE 6 mph 7.2 mph 56 % 0 in
20:21 49.8 °F 34.3 °F 29.8 in SSE 3.8 mph 8.7 mph 55 % 0 in
20:27 49.8 °F 34.3 °F 29.8 in SE 5.4 mph 8.7 mph 55 % 0 in
20:28 49.8 °F 34.7 °F 29.8 in SE 3.8 mph 8.7 mph 56 % 0 in
20:29 49.8 °F 34.7 °F 29.8 in SE 4.3 mph 8.7 mph 56 % 0 in
20:31 49.8 °F 34.7 °F 29.8 in ESE 4.3 mph 7.8 mph 56 % 0 in
20:34 49.6 °F 34.5 °F 29.8 in SE 6.5 mph 7.8 mph 56 % 0 in
20:37 49.8 °F 34.3 °F 29.8 in SE 7.8 mph 7.8 mph 55 % 0 in
20:39 49.8 °F 34.3 °F 29.8 in ESE 6 mph 7.8 mph 55 % 0 in
20:43 49.6 °F 34.5 °F 29.8 in SE 6.7 mph 7.8 mph 56 % 0 in
20:48 49.6 °F 34.5 °F 29.8 in Calm   6.7 mph 56 % 0 in
20:53 49.3 °F 34.7 °F 29.9 in ESE 4 mph 6.5 mph 57 % 0 in
20:58 49.1 °F 35.1 °F 29.9 in ESE 5.8 mph 6.5 mph 58 % 0 in
21:03 48.9 °F 34.9 °F 29.9 in SE 6.3 mph 8.1 mph 58 % 0 in
21:05 48.9 °F 34.9 °F 29.9 in ESE 5.4 mph 8.1 mph 58 % 0 in
21:10 48.7 °F 35.1 °F 29.8 in ESE 4.7 mph 8.1 mph 59 % 0 in
21:15 48.4 °F 35.1 °F 29.8 in SE 5.4 mph 6.5 mph 60 % 0 in
21:20 48.2 °F 35.1 °F 29.8 in ESE 2.9 mph 7.8 mph 60 % 0 in
21:25 48.2 °F 35.4 °F 29.9 in East 4 mph 7.8 mph 61 % 0 in
21:30 48 °F 35.6 °F 29.9 in East 3.8 mph 7.4 mph 62 % 0 in
21:34 47.8 °F 36 °F 29.9 in ESE 4.9 mph 7.4 mph 63 % 0 in
21:35 47.8 °F 35.4 °F 29.9 in ESE 5.4 mph 7.6 mph 62 % 0 in
21:40 47.7 °F 36.1 °F 29.9 in ESE 4.9 mph 7.6 mph 64 % 0 in
21:45 47.5 °F 36 °F 29.9 in East 5.6 mph 7.6 mph 64 % 0 in
21:50 47.5 °F 36.3 °F 29.9 in East 4.3 mph 8.1 mph 65 % 0 in
21:55 47.3 °F 36.1 °F 29.8 in East 6.3 mph 8.1 mph 65 % 0 in
22:00 47.1 °F 36 °F 29.8 in SE 2.7 mph 6.7 mph 65 % 0 in
22:05 46.8 °F 35.8 °F 29.8 in Calm   6.3 mph 65 % 0 in
22:10 46.6 °F 35.4 °F 29.9 in Calm   6 mph 65 % 0 in
22:11 46.6 °F 35.4 °F 29.9 in ESE 3.8 mph 5.6 mph 65 % 0 in
22:16 46.2 °F 35.4 °F 29.9 in East 3.1 mph 5.6 mph 66 % 0 in
22:21 45.9 °F 35.1 °F 29.9 in Calm   4.9 mph 66 % 0 in
22:26 45.1 °F 34.9 °F 29.9 in East 1.1 mph 4.9 mph 67 % 0 in
22:31 45.1 °F 35.8 °F 29.9 in ENE 5.6 mph 5.6 mph 69 % 0 in
22:36 45.1 °F 35.8 °F 29.9 in ESE 4.7 mph 6 mph 69 % 0 in
22:41 45.1 °F 36 °F 29.9 in ESE 3.8 mph 6 mph 70 % 0 in
22:46 45.1 °F 36 °F 29.9 in ESE 5.6 mph 7.4 mph 70 % 0 in
22:51 45.1 °F 36 °F 29.9 in ESE 1.6 mph 7.4 mph 70 % 0 in
22:57 45 °F 35.8 °F 29.9 in ESE 4.3 mph 6.3 mph 70 % 0 in
23:02 44.8 °F 36 °F 29.9 in ESE 7.6 mph 7.6 mph 71 % 0 in
23:07 44.4 °F 36.1 °F 29.9 in ESE 2 mph 7.6 mph 72 % 0 in
23:12 44.2 °F 36 °F 29.9 in SE 4.9 mph 6.5 mph 72 % 0 in
23:17 44.2 °F 36 °F 29.9 in ESE 6.3 mph 7.2 mph 72 % 0 in
23:22 44.2 °F 36 °F 29.9 in SE 6.3 mph 8.1 mph 72 % 0 in
23:27 44.2 °F 36.1 °F 29.9 in ESE 3.1 mph 8.1 mph 73 % 0 in
23:32 44.1 °F 36 °F 29.9 in ESE 6.3 mph 6.3 mph 73 % 0 in
23:37 44.1 °F 36 °F 29.9 in SE 5.4 mph 6.5 mph 73 % 0 in
23:42 44.1 °F 36 °F 29.9 in ESE 4 mph 6.5 mph 73 % 0 in
23:47 44.1 °F 36 °F 29.9 in East 6.3 mph 6.5 mph 73 % 0 in
23:52 44.2 °F 36.1 °F 29.9 in East 4.7 mph 6.5 mph 73 % 0 in
23:57 44.2 °F 36.1 °F 29.8 in ESE 4 mph 6.5 mph 73 % 0 in
Le Gheer Warneton
Courtoisie de Weather Underground - 2.25 mb

Mise a jour : 17-12-17 09:05:12
Généré par Cumulus 1.9.4 (1099)